Regional Weather Roundup
Issued by NWS

Home | Current Version | Previous Version | Text Only | Print | Product List | Glossary On
Versions: 1 2 3 4 5 6 7 8 9 10 11 12 13 14 15 16 17 18 19 20 21 22 23 24 25 26 27 28 29 30 31 32 33 34 35 36 37 38 39 40 41 42 43 44 45 46 47 48 49 50
000
ASUS43 KMKX 221900
RWRWI

WISCONSIN REGIONAL WEATHER ROUNDUP
NATIONAL WEATHER SERVICE MILWAUKEE/SULLIVAN WI
200 PM CDT TUE JUL 22 2014

NOTE: "FAIR" INDICATES FEW OR NO CLOUDS BELOW 12,000 FEET WITH NO
SIGNIFICANT WEATHER AND/OR OBSTRUCTIONS TO VISIBILITY.

WIZ001-002-006>008-014>016-023>028-222000-
NORTHWEST WISCONSIN

CITY           SKY/WX    TMP DP  RH WIND       PRES   REMARKS
SUPERIOR ARPT  PTSUNNY   80  63  56 N16G24    29.96R HX  81
ASHLAND        CLOUDY    73  64  73 NW10      29.96R
HAYWARD        PTSUNNY   75  63  66 VRB5      29.98S
SIREN          CLOUDY    76  61  60 NW8       30.00R
RICE LAKE      CLOUDY    77  62  59 W13G18    30.01R
LADYSMITH      PTSUNNY   78  65  62 NW16      29.99R HX  80
EAU CLAIRE     NOT AVBL
MENOMONIE      MOCLDY    82  66  58 NW10G16   29.97R HX  84
NEW RICHMOND   PTSUNNY   78  63  60 NW12      30.01R
OSCEOLA        PTSUNNY   77  64  63 NW9       30.04R
$$

WIZ003>005-009-010-017-018-222000-
NORTH CENTRAL WISCONSIN

CITY           SKY/WX    TMP DP  RH WIND       PRES   REMARKS
WOODRUFF       CLOUDY    77  65  65 NW13G18   29.95R
RHINELANDER    PTSUNNY   79  65  62 W15G23    29.95R HX  81
EAGLE RIVER    CLOUDY    77  61  59 NW16G23   29.92R
LAND O LAKES   PTSUNNY   76  63  62 NW9G18    29.93R
PHILLIPS       CLOUDY    75  65  70 W6        29.96R
TOMAHAWK       MOSUNNY   79  64  60 NW9G17    29.94R HX  81
MEDFORD        MOSUNNY   79  66  64 NW16      29.96R HX  81
MERRILL        MOSUNNY   82  66  59 NW12G17   29.93R HX  84
$$

WIZ029-030-035-036-043>047-222000-
CENTRAL WISCONSIN

CITY           SKY/WX    TMP DP  RH WIND       PRES   REMARKS
WAUSAU         MOSUNNY   86  65  49 NW16      29.91R HX  88
MOSINEE        MOSUNNY   84  64  51 W15G22    29.94R HX  86
MARSHFIELD     MOSUNNY   84  66  54 NW17G26   29.95R HX  86
STEVENS POINT  PTSUNNY   85  67  55 NW10G20   29.91R HX  88
WAUPACA        PTSUNNY   92  71  49 W10       29.88R HX  98
WAUTOMA        NOT AVBL
WISC RAPIDS    MOSUNNY   88  68  51 NW17      29.93R HX  91
CAMP DOUGLAS   NOT AVBL
$$

WIZ011>013-019>022-031-037>040-048>050-222000-
NORTHEAST WISCONSIN

CITY           SKY/WX    TMP DP  RH WIND       PRES   REMARKS
ANTIGO         MOSUNNY   81  67  61 W13G20    29.92R HX  84
STURGEON BAY   SUNNY     88  72  58 SW16G24   29.84S HX  94
GREEN BAY      MOSUNNY   89  75  63 W8        29.86R HX  99
MANITOWOC      PTSUNNY   88  73  62 W16       29.86R HX  96
APPLETON       PTSUNNY   84  72  65 W13       29.89R HX  89
CLINTONVILLE   MOSUNNY   90  68  48 W12       29.86S HX  93
OSHKOSH        MOSUNNY   88  75  65 W12G18    29.88R HX  97
$$

WIZ032>034-041-042-053>061-222000-
SOUTHWEST WISCONSIN

CITY           SKY/WX    TMP DP  RH WIND       PRES   REMARKS
LA CROSSE      SUNNY     90  69  50 NW16      29.93R HX  94
SPARTA         MOSUNNY   88  70  54 NW17      29.94R HX  92
VIROQUA        MOCLDY    88  74  63 W10       29.96R HX  96
BOSCOBEL       SUNNY     91  75  59 W8        29.92S HX 101
PRAIRIE DU CHI SUNNY     90  72  55 SW7       29.92S HX  96
PLATTEVILLE    PTSUNNY   87  77  72 SW9       29.95R HX  98
$$

WIZ056-057-062-063-064-067-068-222000-
SOUTH CENTRAL WISCONSIN

CITY           SKY/WX    TMP DP  RH WIND       PRES   REMARKS
BARABOO/DELLS  MOSUNNY   89  71  55 W8G18     29.92R HX  95
LONE ROCK      NOT AVBL
WATERTOWN      SUNNY     86  75  70 SW12G18   29.89F HX  95
MADISON        MOSUNNY   89  75  63 VRB7      29.90F HX  99
MIDDLETON      FAIR      91  73  56 SW8       29.91S HX  98
MONROE         CLOUDY    86  73  66 SW14      29.94S HX  93
JANESVILLE     PTSUNNY   88  72  58 S14       29.91F HX  94
$$

WIZ051-052-058>065-066-070>072-222000-
SOUTHEAST WISCONSIN

CITY           SKY/WX    TMP DP  RH WIND       PRES   REMARKS
MILWAUKEE      MOSUNNY   89  73  59 SW17G24   29.89F HX  97
WAUKESHA       PTSUNNY   84  73  70 SW17G25   29.92F HX  91
MILWAUKEE/TIMM MOSUNNY   88  72  58 SW13G18   29.89F HX  94
RACINE         PTSUNNY   87  73  62 SW14G23   29.93F HX  94
BURLINGTON     PTSUNNY   84  74  70 SW13      29.93F HX  91
KENOSHA        PTSUNNY   88  74  63 SW16      29.94F HX  96
FOND DU LAC    MOSUNNY   88  74  63 W12       29.88S HX  96
SHEBOYGAN      SUNNY     87  74  64 SW14      29.86F HX  95
WEST BEND      MOSUNNY   86  72  62 SW13      29.89F HX  92
JUNEAU         MOSUNNY   85  58  39 SW13G18   29.90F HX  85
$$

LSZ147-162-222000-
LAKE SUPERIOR

STATION/POSITION TIME  TEMP    WIND        PRES    WAVE
                       AIR SEA DIR/SP/G            HT/PER
                 (UTC) (F)     (DEG/KT/KT) (MB)    (FT/S)
W MID LAKE BUOY  1750   50 40  260/ 14/ 16 1010.4R   3/ 5
PORT WING        1840   69     270/  5/  7 1014.2R
SAXON HARBOR     1800          290/  8/ 14 1013.2R
$$

LMZ867-665-643>646-222000-
LAKE MICHIGAN

STATION/POSITION TIME  TEMP    WIND        PRES    WAVE
                       AIR SEA DIR/SP/G            HT/PER
                 (UTC) (F)     (DEG/KT/KT) (MB)    (FT/S)
N MID LAKE BUOY  1750   62 57  210/ 21/ 25 1008.6F   6/ 6
NORTHPORT PIER   1800   71     140/ 10/ 12 1008.8F
KEWAUNEE LAKESHO 1800   57     170/ 12/ 15 1011.5F
SHEBOYGAN LAKESH 1800   67     170/ 22/ 23 1011.3F
PORT WASHINGTON  1800          250/  9/ 18 1012.9F
ATWATER BUOY     1800   73     220/ 12     1013.8F
MILWAUKEE LAKESH 1800   84     230/ 14/ 18   N/A
S MID LAKE BUOY  1750   71 68  180/ 14/ 17 1015.0F   2/ 4
KENOSHA   LAKESH 1800   86     220/ 12/ 18   N/A
$$

TC  - TEMPERATURE IN CELSIUS
VSB - VISIBILITY IN STATUTE MILES
WCI - WIND CHILL INDEX
HX  - HEAT INDEX



USA.gov is the U.S. government's official web portal to all federal, state and local government web resources and services.